Regional Weather Roundup
Issued by NWS Northern Indiana

Home | Current Version | Previous Version | Text Only | Print | Product List | Glossary Off
Versions: 1 2 3 4 5 6 7 8 9 10 11 12 13 14 15 16 17 18 19 20 21 22 23 24 25 26 27 28 29 30 31 32 33 34 35 36 37 38 39 40 41 42 43 44 45 46 47 48 49 50

000
ASUS43 KIWX 242310
RWRIWX

KIWX WEATHER ROUNDUP
NATIONAL WEATHER SERVICE NORTHERN INDIANA
700 PM EDT WED MAY 24 2017

NOTE: "FAIR" INDICATES FEW OR NO CLOUDS BELOW 12,000 FEET WITH NO
SIGNIFICANT WEATHER AND/OR OBSTRUCTIONS TO VISIBILITY.

* THESE STATIONS ARE NOT UNDER NWS QUALITY CONTROL. THEY ALSO MAY NOT
  REPORT WEATHER SUCH AS PRECIPITATION OR FOG.

INZ001>027-250000-
NORTHERN INDIANA

CITY           SKY/WX    TMP DP  RH WIND       PRES   REMARKS
GARY*          RAIN      52  50  93 NW8       29.56F
VALPARAISO     CLOUDY    55  54  96 NW8       29.51S FOG
MICHIGAN CITY* CLOUDY    52  52 100 NE6       29.54R
LAPORTE*       LGT RAIN  56  54  93 NE7G20    29.53R
KNOX*          CLOUDY    57  54  88 N13       29.50R
SOUTH BEND     LGT RAIN  58  56  93 CALM      29.51F
ELKHART*       LGT RAIN  59  57  94 NE6       29.51S
GOSHEN         LGT RAIN  61  57  87 NE8       29.50R
MONTICELLO*    LGT RAIN  59  58  95 N12       29.47S
LOGANSPORT*    RAIN      57  55  94 N15G25    29.47F
ROCHESTER*     RAIN      61  61 100 N9        29.48F
WARSAW*        RAIN      59  59 100 E5        29.49S
ANGOLA*        CLOUDY    57  46  67 N6        29.50S
FORT WAYNE     HVY RAIN  59  56  89 NW14      29.44F FOG
HUNTINGTON*    RAIN      58  56  96 NE8       29.46F
PERU/GRISSOM   CLOUDY    59  59 100 N9        29.45F
MARION*        CLOUDY    57  55  94 N7        29.45F

$$
INZ028>050-250000-
CENTRAL INDIANA

CITY           SKY/WX    TMP DP  RH WIND       PRES   REMARKS
LAFAYETTE      CLOUDY    61  57  87 N9        29.46S
KOKOMO*        LGT RAIN  60  58  92 N10       29.46F
MUNCIE*        CLOUDY    61  57  87 N15       29.42F
INDIANAPOLIS   CLOUDY    59  56  89 N13       29.42F

$$
MIZ043>046-050>051-056>058-064>065-071>073-077>080-250000-
SOUTHWEST LOWER MICHIGAN

CITY           SKY/WX    TMP DP  RH WIND       PRES   REMARKS
BATTLE CREEK   CLOUDY    62  60  93 NE5       29.53S
BENTON HARBOR  LGT RAIN  61  57  87 E7        29.51R
COLDWATER*     LGT RAIN  59  58  96 NE5       29.52S
HILLSDALE*     LGT RAIN  59  55  88 N3        29.50F
HOLLAND        LGT RAIN  60  55  83 SE16G26   29.56R
GRAND RAPIDS   LGT RAIN  61  59  93 NE7       29.55R FOG
KALAMAZOO      LGT RAIN  61  57  87 NE6       29.53F
STURGIS*       RAIN      59  57  93 NE8       29.51R
THREE RIVERS*  RAIN      60  58  94 E8        29.52S

$$
OHZ001>008-015>018-024>025-250000-
NORTHWEST OHIO

CITY           SKY/WX    TMP DP  RH WIND       PRES   REMARKS
WAUSEON*       LGT RAIN  59  59 100 NE17      29.47F
DEFIANCE       LGT RAIN  59  57  93 NE10      29.46S FOG
FINDLAY        CLOUDY    65  59  81 E9        29.42F
TOLEDO EXPRESS CLOUDY    59  59 100 E16       29.47F
TOLEDO METCALF CLOUDY    60  59  96 E14G22    29.49S FOG
LIMA           CLOUDY    66  59  78 E14       29.41F

$$
AND FOR LAKE MICHIGAN COASTAL AND OPEN LAKE BUOY OBSERVATIONS

STATION/POSITION TEMP    WIND        PRES    VSBY  WAVE
                 AIR SEA DIR/SP/G                  HT/PER
                 (F)     (DEG/KT/KT) (MB)    (MI)  (FT/S)
CALUMET HARBOR    51     340/ 14/ 20 1000.5R
MICHIGAN CITY     50     290/ 14/ 15   N/A
BURNS HARBOR      51     320/ 12/ 14 1000.7F
SOUTH LAKE BUOY   48 45   10/ 17/ 19 1000.1          4/ 5
4 MI NW BRIDGMAN  57 56  160/  8/ 10  999.5          4/ 5
MICHIGAN CITY     50 54  310/ 14/ 17   N/A           4/ 5

$$
&&




USA.gov is the U.S. government's official web portal to all federal, state and local government web resources and services.